TimeEDT,TemperatureF,Dew PointF,Humidity,Sea Level PressureIn,VisibilityMPH,Wind Direction,Wind SpeedMPH,Gust SpeedMPH,PrecipitationIn,Events,Conditions,WindDirDegrees,DateUTC
12:53 AM,55.9,50.0,80,29.78,10.0,East,3.5,-,0.00,,Overcast,80,2013-05-06 04:53:00
1:53 AM,54.0,51.1,90,29.77,9.0,Calm,Calm,-,0.03,Rain,Light Rain,0,2013-05-06 05:53:00
2:53 AM,53.1,52.0,96,29.77,3.0,Variable,3.5,-,0.19,Rain,Rain,0,2013-05-06 06:53:00
3:53 AM,54.0,52.0,93,29.78,7.0,East,4.6,-,0.08,Rain,Rain,80,2013-05-06 07:53:00
4:53 AM,54.0,52.0,93,29.77,10.0,ENE,4.6,-,0.04,Rain,Light Rain,60,2013-05-06 08:53:00
5:53 AM,54.0,52.0,93,29.77,10.0,ENE,3.5,-,0.07,Rain,Light Rain,70,2013-05-06 09:53:00
6:53 AM,53.1,51.1,93,29.79,10.0,North,3.5,-,0.05,Rain,Light Rain,10,2013-05-06 10:53:00
7:45 AM,53.1,52.0,96,29.84,2.0,Calm,Calm,-,0.03,Rain,Heavy Rain,0,2013-05-06 11:45:00
7:53 AM,53.1,52.0,96,29.80,2.0,NE,3.5,-,0.05,Rain,Light Rain,40,2013-05-06 11:53:00
8:00 AM,54.0,52.0,93,29.84,6.0,NE,4.6,-,0.00,Rain,Light Rain,50,2013-05-06 12:00:00
8:53 AM,54.0,52.0,93,29.81,5.0,NE,4.6,-,0.05,Rain,Rain,40,2013-05-06 12:53:00
9:53 AM,55.9,54.0,93,29.81,10.0,ENE,4.6,-,0.02,,Overcast,60,2013-05-06 13:53:00
10:53 AM,62.1,54.0,75,29.81,10.0,ENE,10.4,17.3,N/A,,Mostly Cloudy,60,2013-05-06 14:53:00
11:53 AM,64.9,54.0,68,29.80,10.0,NE,4.6,-,N/A,,Scattered Clouds,50,2013-05-06 15:53:00
12:53 PM,66.0,48.0,52,29.77,10.0,Calm,Calm,-,N/A,,Mostly Cloudy,0,2013-05-06 16:53:00
1:53 PM,66.0,43.0,43,29.77,10.0,SE,8.1,-,N/A,,Mostly Cloudy,130,2013-05-06 17:53:00
2:53 PM,64.9,46.0,50,29.78,10.0,East,10.4,-,N/A,,Mostly Cloudy,100,2013-05-06 18:53:00
3:53 PM,69.1,48.9,49,29.75,10.0,ENE,6.9,-,N/A,,Mostly Cloudy,70,2013-05-06 19:53:00
4:53 PM,69.1,46.9,45,29.74,10.0,ENE,8.1,-,N/A,,Mostly Cloudy,60,2013-05-06 20:53:00
5:53 PM,68.0,46.9,47,29.73,10.0,NE,6.9,-,N/A,,Mostly Cloudy,50,2013-05-06 21:53:00
6:53 PM,68.0,48.9,50,29.74,10.0,NE,6.9,-,N/A,,Mostly Cloudy,50,2013-05-06 22:53:00
7:53 PM,63.0,48.9,60,29.78,10.0,WSW,12.7,-,N/A,,Mostly Cloudy,250,2013-05-06 23:53:00
8:53 PM,59.0,48.9,69,29.82,10.0,SW,8.1,-,N/A,,Mostly Cloudy,220,2013-05-07 00:53:00
9:53 PM,57.0,46.9,69,29.86,10.0,SW,8.1,-,N/A,,Mostly Cloudy,230,2013-05-07 01:53:00
10:53 PM,55.9,46.0,69,29.88,10.0,SW,3.5,-,N/A,,Mostly Cloudy,220,2013-05-07 02:53:00
11:53 PM,50.0,45.0,83,29.88,10.0,Calm,Calm,-,N/A,,Clear,0,2013-05-07 03:53:00